This is the latest recevied weather packets stored in our database for station/object KG5CK-1. If no packets are shown the sender has not sent any weather packets the latest 10 day(s).
| Time | Temp. | Humidity | Pressure | Rain* | Wind** | Luminosity | Snow |
|---|---|---|---|---|---|---|---|
| 1777467783 | 15.56° C | 85% | 1010.9 hPa | 0 mm | 1.34 m/s, 41° | - | - |
| 1777467723 | 15.56° C | 85% | 1010.9 hPa | 0 mm | 1.34 m/s, 41° | - | - |
| 1777467663 | 15.56° C | 85% | 1010.9 hPa | 0 mm | 1.34 m/s, 41° | - | - |
| 1777467603 | 15.56° C | 85% | 1011.2 hPa | 0 mm | 0.89 m/s, 61° | - | - |
| 1777467543 | 15.56° C | 85% | 1011.2 hPa | 0 mm | 0.89 m/s, 61° | - | - |
| 1777467483 | 15.56° C | 85% | 1011.2 hPa | 0 mm | 0.89 m/s, 61° | - | - |
| 1777467423 | 15.56° C | 85% | 1011.2 hPa | 0 mm | 0.89 m/s, 61° | - | - |
| 1777467363 | 15.56° C | 85% | 1011.2 hPa | 0 mm | 0.89 m/s, 61° | - | - |
| 1777467303 | 15° C | 85% | 1011.2 hPa | 0 mm | 0.45 m/s, 48° | - | - |
| 1777467243 | 15° C | 85% | 1011.2 hPa | 0 mm | 0.45 m/s, 48° | - | - |
| 1777467183 | 15° C | 85% | 1011.2 hPa | 0 mm | 0.45 m/s, 48° | - | - |
| 1777467123 | 15° C | 85% | 1011.2 hPa | 0 mm | 0.45 m/s, 48° | - | - |
| 1777467063 | 15° C | 85% | 1011.2 hPa | 0 mm | 0.45 m/s, 48° | - | - |
| 1777467003 | 15° C | 85% | 1011.2 hPa | 0 mm | 0.89 m/s, 39° | - | - |
| 1777466943 | 15° C | 85% | 1011.2 hPa | 0 mm | 0.89 m/s, 39° | - | - |
| 1777466883 | 15° C | 85% | 1011.2 hPa | 0 mm | 0.89 m/s, 39° | - | - |
| 1777466823 | 15° C | 85% | 1011.2 hPa | 0 mm | 0.89 m/s, 39° | - | - |
| 1777466763 | 15° C | 85% | 1011.2 hPa | 0 mm | 0.89 m/s, 39° | - | - |
| 1777466704 | 15° C | 85% | 1011 hPa | 0 mm | 1.79 m/s, 37° | - | - |
| 1777466643 | 15° C | 85% | 1011 hPa | 0 mm | 1.79 m/s, 37° | - | - |
| 1777466583 | 15° C | 85% | 1011 hPa | 0 mm | 1.79 m/s, 37° | - | - |
| 1777466523 | 15° C | 85% | 1011 hPa | 0 mm | 1.79 m/s, 37° | - | - |
| 1777466463 | 15° C | 85% | 1011 hPa | 0 mm | 1.79 m/s, 37° | - | - |
| 1777466403 | 15° C | 85% | 1011 hPa | 0 mm | 1.79 m/s, 37° | - | - |
| 1777466343 | 15° C | 84% | 1011.1 hPa | 0 mm | 1.34 m/s, 91° | - | - |
* Rain latest hour (hover to see other rain measurements)
** Current wind speed in m/s (hover to see current wind gust speed)